ECHOSTAR 19

Last updated on Thu Jul 03 2025 00:02:47 GMT+0000 (Coordinated Universal Time)

1 41893U 16079A 25183.47597949 -.00000131 00000+0 00000+0 0 9995 2 41893 0.0197 30.8916 0001431 69.6481 254.4618 1.00271040 31193
UTC large
Height (km)
Speed (km/s)
/
Latitude / Longitude
Inclination (degrees)
Orbital Period (minutes)
Azimuth
Elevation
Range (km)
Doppler Factor

Next 0 passes for location: London (51.5072 / 0.1276)

Sorry there are no passes over London.